[[{"header":{"parameterUnit":"m.s-1","parameterCategory":1,"la1":30.2991,"la2":30.254,"lo1":-89.0895,"lo2":-89.0444,"dy":0.0017,"dx":0.0017,"nx":28,"ny":28,"refTime":"2025-08-20T03:00:00:Z","depth":0,"parameterNumber":2,"parameterNumberName":"U-component_of_WINDS"},"data":[0,0,0,0,0,0,0,0,0,0,0,0,0,0,0,0,0,0,0,0,0,0,0,0,0,0,0,0,0,0,0,0,0,0,0,0,0,0,0,0,0,0,0,0,0,0,0,0,0,0,0,0,0,0,0,0,0,0,0.5761,0.5763,0,0.5931,0.5933,0.5935,0.6035,0.6036,0.6036,0.6037,0.621,0.6214,0.6218,0,0,0,0,0,0,0,0,0,0,0,0,0,0.5524,0.5528,0.5761,0.5763,0.5765,0.5931,0.5933,0.5935,0.6035,0.6036,0.6036,0.6037,0.6208,0.6213,0.6218,0,0,0,0,0,0,0,0,0,0,0,0,0,0.5654,0.553,0.5761,0.5835,0.5843,0.593,0.5933,0.5936,0.6035,0.6036,0.6036,0.6037,0.6207,0.6213,0.6219,0.6245,0,0,0.6238,0.6241,0,0,0,0,0,0,0,0,0.5646,0.5662,0.5822,0.583,0.584,0.5963,0.5913,0.6039,0.6035,0.5962,0.6037,0.6037,0.6127,0.614,0.617,0.6253,0.626,0.6239,0.6243,0.6245,0.6247,0,0,0,0,0,0,0,0.5637,0.5656,0.5828,0.5824,0.5835,0.586,0.5879,0.5937,0.6039,0.5969,0.5976,0.5995,0.6132,0.6164,0.6175,0.6263,0.6239,0.6244,0.6248,0.6251,0.6378,0.6377,0,0,0,0,0,0,0.5616,0.5648,0.5823,0.5833,0.5743,0.5864,0.5885,0.5922,0.6038,0.6057,0.5994,0.5999,0.6153,0.6167,0.6181,0.6221,0.6245,0.6251,0.6255,0.6378,0.6377,0.6377,0,0,0,0,0,0,0.5611,0.5631,0.5816,0.5743,0.5768,0.5867,0.5908,0.5925,0.5958,0.6058,0.6076,0.6008,0.6154,0.6173,0.6229,0.6228,0.6254,0.626,0.6378,0.6378,0.6377,0.6298,0,0,0,0,0,0,0.5604,0.5629,0.5639,0.5742,0.5772,0.586,0.5908,0.5928,0.5968,0.5976,0.6076,0.6093,0.6156,0.6219,0.6235,0.6237,0.6265,0.6379,0.6378,0.6377,0.6301,0.6295,0.6289,0,0,0,0,0,0.5595,0.5609,0.5639,0.5659,0.5787,0.5859,0.5876,0.5948,0.5968,0.5979,0.6044,0.609,0.6225,0.6224,0.6243,0.6247,0.6379,0.6378,0.6378,0.6304,0.6296,0.6289,0,0,0,0,0,0,0.5502,0.5624,0.5658,0.5706,0.5772,0.5876,0.5893,0.5938,0.5999,0.6004,0.609,0.6112,0.616,0.6209,0.6205,0.6279,0.6308,0.631,0.6245,0.6238,0.6232,0.622,0.627,0,0,0,0,0,0.5487,0.5536,0.564,0.5672,0.5703,0.5792,0.5827,0.5877,0.5948,0.5976,0.6045,0.6113,0.6171,0.6208,0.6267,0.6309,0.6333,0.6321,0.6315,0.631,0.6311,0.6339,0.6336,0.6374,0.6374,0.6374,0,0,0.5456,0.5529,0.5554,0.5655,0.5712,0.5761,0.5815,0.5864,0.5902,0.5984,0.6042,0.6095,0.6176,0.6226,0.6251,0.6268,0.6306,0.6309,0.6304,0.6308,0.6338,0.6334,0.6331,0.6373,0.6374,0.6374,0,0,0.5426,0.5485,0.552,0.5576,0.5662,0.5722,0.573,0.5829,0.5867,0.5927,0.599,0.6036,0.6134,0.619,0.6231,0.6225,0.627,0.6242,0.6211,0.6237,0.6234,0.6232,0.6231,0.6229,0.6243,0.6243,0.6243,0,0.5377,0.5454,0.5531,0.5578,0.5621,0.5699,0.5735,0.5786,0.5886,0.5915,0.5932,0.6059,0.6119,0.6184,0.6182,0.6213,0.6226,0.6231,0.6228,0.6227,0.6226,0.6226,0.6225,0.6239,0.624,0.624,0.624,0,0.539,0.5442,0.546,0.5556,0.5601,0.5642,0.5727,0.5763,0.581,0.5868,0.5929,0.6004,0.6081,0.61,0.6145,0.6172,0.618,0.6212,0.6243,0.6217,0.6219,0.6219,0.6234,0.6235,0.6236,0.6237,0,0,0.5303,0.5444,0.5449,0.5495,0.5597,0.5639,0.5685,0.576,0.5791,0.5858,0.5899,0.5981,0.6012,0.6059,0.6112,0.6135,0.6127,0.6165,0.6168,0.6155,0.6162,0.6138,0.6136,0.6158,0.6158,0.6158,0.6156,0,0.5288,0.5373,0.5446,0.5505,0.5555,0.5631,0.5671,0.5738,0.5794,0.5845,0.5907,0.5965,0.6001,0.603,0.6056,0.6122,0.6129,0.6123,0.6197,0.6199,0.6174,0.6137,0.6111,0.6105,0.6157,0.6157,0.6157,0,0.5281,0.5347,0.5411,0.551,0.5534,0.5568,0.5645,0.5693,0.5771,0.5811,0.5864,0.592,0.5972,0.5998,0.6072,0.6066,0.6101,0.6138,0.614,0.615,0.6176,0.6146,0.6105,0.6104,0.6159,0.6158,0.6158,0,0.5212,0.5317,0.537,0.5406,0.5523,0.5546,0.5595,0.5675,0.5716,0.5783,0.5812,0.5883,0.5922,0.5977,0.6052,0.6063,0.6118,0.615,0.6153,0.6151,0.6161,0.6159,0.6125,0.6182,0.6182,0.6182,0.6182,0,0.5188,0.5224,0.5341,0.5373,0.5416,0.55,0.5541,0.5598,0.5668,0.5713,0.5783,0.5824,0.592,0.5972,0.6031,0.6084,0.6101,0.6135,0.615,0.6129,0.6124,0.6152,0.6155,0.6182,0.6182,0.6182,0.6182,0,0.5118,0.5197,0.526,0.5366,0.5394,0.5422,0.5513,0.5548,0.5609,0.5665,0.5683,0.5778,0.5844,0.5924,0.6015,0.6055,0.6103,0.6125,0.6076,0.6085,0.6084,0.6083,0.6066,0.6069,0.6123,0.6123,0.6122,0,0.5097,0.5127,0.5237,0.5273,0.5321,0.5377,0.5421,0.5506,0.5548,0.5642,0.5665,0.5737,0.5798,0.59,0.5977,0.6048,0.6073,0.6063,0.6084,0.6063,0.6074,0.6072,0.6076,0.6057,0.6056,0.6055,0.6054,0,0.5051,0.509,0.515,0.5225,0.5275,0.5338,0.5404,0.5429,0.5527,0.5572,0.564,0.5688,0.5783,0.5853,0.5934,0.5986,0.6037,0.6047,0.6052,0.603,0.6001,0.6018,0.6061,0.6047,0.6048,0.6048,0.6048,0.6049,0.5006,0.5037,0.512,0.5186,0.5245,0.5305,0.5344,0.541,0.5469,0.5553,0.56,0.5668,0.5748,0.5863,0.5913,0.5968,0.5986,0.5992,0.5994,0.5994,0.5988,0.5992,0.5983,0.5983,0.5983,0.5984,0.5984,0,0.4964,0.5022,0.5082,0.5173,0.5225,0.5269,0.5345,0.5386,0.5445,0.5516,0.5576,0.5656,0.5725,0.5809,0.5884,0.5912,0.5938,0.5929,0.5928,0.594,0.5967,0.5956,0.5908,0.5908,0.5908,0.5908,0.5908,0.5908,0.4949,0.5004,0.5053,0.514,0.5198,0.5266,0.5305,0.5362,0.542,0.5506,0.5565,0.5619,0.5696,0.5778,0.5844,0.5867,0.5892,0.5877,0.5906,0.5931,0.5937,0.5944,0.5934,0.5881,0.5881,0.5875,0.5875,0.5875]},{"header":{"parameterUnit":"m.s-1","parameterCategory":1,"la1":30.2991,"la2":30.254,"lo1":-89.0895,"lo2":-89.0444,"dy":0.0017,"dx":0.0017,"nx":28,"ny":28,"refTime":"2025-08-20T03:00:00:Z","depth":0,"parameterNumber":3,"parameterNumberName":"V-component_of_WINDS"},"data":[0,0,0,0,0,0,0,0,0,0,0,0,0,0,0,0,0,0,0,0,0,0,0,0,0,0,0,0,0,0,0,0,0,0,0,0,0,0,0,0,0,0,0,0,0,0,0,0,0,0,0,0,0,0,0,0,0,0,1.8622,1.8623,0,1.8689,1.869,1.869,1.8701,1.8701,1.87,1.87,1.8764,1.8766,1.8768,0,0,0,0,0,0,0,0,0,0,0,0,0,1.8499,1.8501,1.8622,1.8623,1.8624,1.8689,1.869,1.8691,1.8701,1.8701,1.87,1.8699,1.8763,1.8766,1.8768,0,0,0,0,0,0,0,0,0,0,0,0,0,1.8557,1.8502,1.8622,1.8637,1.8639,1.8689,1.869,1.8691,1.8701,1.8701,1.87,1.8699,1.8762,1.8765,1.8769,1.8806,0,0,1.8779,1.878,0,0,0,0,0,0,0,0,1.8554,1.8562,1.8634,1.8636,1.8639,1.8686,1.867,1.8729,1.8702,1.8678,1.87,1.8699,1.8738,1.8744,1.8758,1.8809,1.8812,1.8779,1.8781,1.8783,1.8784,0,0,0,0,0,0,0,1.855,1.8559,1.8649,1.8635,1.8638,1.8639,1.8646,1.8681,1.8712,1.868,1.8681,1.8689,1.8739,1.8755,1.8759,1.8813,1.8779,1.8782,1.8784,1.8786,1.8896,1.8897,0,0,0,0,0,0,1.8544,1.8556,1.8646,1.8651,1.8594,1.8642,1.865,1.8672,1.8712,1.8717,1.8689,1.8689,1.8749,1.8755,1.8762,1.8807,1.8783,1.8786,1.8788,1.8895,1.8896,1.8897,0,0,0,0,0,0,1.8541,1.8552,1.8644,1.8603,1.8615,1.8645,1.8669,1.8673,1.8689,1.8719,1.8724,1.87,1.8749,1.8757,1.8795,1.8809,1.8787,1.879,1.8894,1.8895,1.8897,1.8899,0,0,0,0,0,0,1.8538,1.8551,1.8567,1.8604,1.8617,1.8678,1.867,1.8675,1.8695,1.8695,1.873,1.8735,1.8749,1.879,1.8798,1.8814,1.8793,1.8893,1.8895,1.8896,1.8898,1.89,1.8902,0,0,0,0,0,1.8533,1.8565,1.8568,1.8579,1.8639,1.8679,1.8686,1.8703,1.8696,1.8711,1.873,1.8734,1.8806,1.8794,1.8803,1.882,1.8892,1.8894,1.8896,1.8897,1.89,1.8902,0,0,0,0,0,0,1.8529,1.857,1.8574,1.8619,1.8645,1.868,1.8701,1.8706,1.8734,1.8733,1.8751,1.8758,1.8795,1.8811,1.8796,1.8857,1.8848,1.8852,1.8845,1.8849,1.8851,1.8846,1.8796,0,0,0,0,0,1.8533,1.8564,1.8598,1.8634,1.8647,1.8671,1.8689,1.87,1.8727,1.8738,1.876,1.8785,1.8813,1.8832,1.886,1.8899,1.8906,1.8915,1.8918,1.8919,1.8923,1.8943,1.8947,1.8904,1.8904,1.8904,0,0,1.8543,1.8569,1.8587,1.8634,1.8655,1.8685,1.8681,1.8713,1.8734,1.8743,1.878,1.8796,1.8825,1.8864,1.8882,1.8878,1.8936,1.8922,1.8923,1.8926,1.8945,1.8949,1.8953,1.8905,1.8905,1.8905,0,0,1.8575,1.8598,1.863,1.8651,1.8684,1.87,1.8707,1.8741,1.8752,1.879,1.8796,1.8821,1.887,1.889,1.8906,1.8942,1.8945,1.895,1.8963,1.8982,1.8985,1.8988,1.9,1.9004,1.8953,1.8953,1.8953,0,1.8582,1.8628,1.8645,1.8677,1.8696,1.8705,1.8736,1.8755,1.8795,1.8807,1.8802,1.8863,1.8883,1.8925,1.8934,1.8947,1.8954,1.8947,1.8984,1.8987,1.899,1.9001,1.9006,1.8954,1.8954,1.8954,1.8954,0,1.8634,1.8666,1.8687,1.8726,1.8747,1.8778,1.8798,1.8817,1.8824,1.884,1.8876,1.89,1.8932,1.8943,1.8951,1.8985,1.8982,1.898,1.8972,1.8994,1.9005,1.9009,1.8954,1.8954,1.8954,1.8954,0,0,1.8668,1.8714,1.8721,1.8738,1.8773,1.8797,1.8826,1.8858,1.8874,1.8899,1.8924,1.8963,1.8961,1.898,1.8989,1.9006,1.9031,1.9002,1.9003,1.9006,1.9069,1.907,1.9075,1.9033,1.9034,1.9034,1.9066,0,1.8703,1.8759,1.8774,1.882,1.8848,1.8855,1.888,1.8904,1.8918,1.8942,1.8957,1.8984,1.898,1.8991,1.9008,1.9024,1.9044,1.9022,1.9054,1.9055,1.9047,1.9081,1.9083,1.9112,1.9071,1.9071,1.9072,0,1.8753,1.8781,1.883,1.8859,1.8871,1.8894,1.8923,1.8947,1.8971,1.898,1.9,1.9007,1.9036,1.9025,1.9064,1.9049,1.9062,1.9072,1.9073,1.9077,1.9065,1.9085,1.9121,1.9125,1.9079,1.9078,1.9078,0,1.8772,1.882,1.8855,1.8869,1.8905,1.892,1.8935,1.896,1.8977,1.9001,1.9012,1.9039,1.9054,1.9074,1.9087,1.9079,1.9124,1.9115,1.9131,1.9131,1.9141,1.914,1.918,1.9149,1.9149,1.9149,1.9149,0,1.881,1.884,1.8864,1.8886,1.8917,1.8933,1.8963,1.8978,1.8999,1.9022,1.903,1.9051,1.9067,1.9089,1.91,1.9129,1.9136,1.9142,1.9145,1.9142,1.9141,1.9152,1.915,1.915,1.915,1.915,1.915,0,1.8837,1.8855,1.8893,1.8923,1.8931,1.8953,1.8977,1.8997,1.901,1.9039,1.9046,1.9067,1.9094,1.9108,1.9142,1.9148,1.9181,1.9183,1.9173,1.9174,1.9189,1.9187,1.9237,1.9243,1.9209,1.9209,1.9209,0,1.8861,1.8883,1.8915,1.8931,1.8947,1.8973,1.899,1.9005,1.9022,1.9051,1.9067,1.9094,1.9117,1.9158,1.9175,1.92,1.9202,1.9217,1.9205,1.9201,1.9201,1.92,1.9201,1.9219,1.9219,1.922,1.922,0,1.89,1.8907,1.8933,1.8961,1.8981,1.9004,1.9026,1.9038,1.9056,1.9075,1.9102,1.912,1.9153,1.9179,1.9205,1.9218,1.9222,1.9223,1.9228,1.9226,1.9219,1.9222,1.9179,1.9222,1.9222,1.9222,1.9222,1.9222,1.8926,1.8946,1.897,1.8998,1.9016,1.9036,1.9055,1.907,1.9094,1.9123,1.913,1.9158,1.9179,1.9214,1.9228,1.9249,1.9246,1.9254,1.9255,1.9257,1.9257,1.9215,1.9254,1.9254,1.9254,1.9254,1.9254,0,1.8965,1.8981,1.9006,1.9037,1.9057,1.9059,1.9082,1.9099,1.9125,1.9145,1.9167,1.9197,1.9221,1.9239,1.9264,1.9277,1.9279,1.9283,1.9282,1.9285,1.9259,1.9252,1.9281,1.9281,1.9281,1.9281,1.9281,1.9281,1.8988,1.9021,1.9031,1.9071,1.9086,1.9115,1.9128,1.9146,1.9162,1.9195,1.9216,1.9228,1.9246,1.9272,1.9293,1.9298,1.9306,1.931,1.9315,1.929,1.9287,1.9284,1.9278,1.9312,1.9312,1.9339,1.9339,1.9339]}]]